Wind From: 13-12-2017 10:08 Until: 14-12-2017 06:00 warning for: Wind Level: Yellow info button

Although rather usual in this region, locally or potentially dangerous phenomena are expected. (such as local winds, summer thunderstorms, rising streams or high waves) Be aware and pay attention to the latest weather updates, especially if you carry out activities exposed to weather or close to a stream or shoreline. 


Meteo18 Weather Cam more information Meteo18 Weather Cam


Thunder radar more information blitzortung!


Rain radar more information rain snow radar


Visit our other weather sites:

Template documentation
and downloads

And another site



Weather Underground History page Text

Daily Summary for April 20, 2016 Units:  Metric    English   Both
« Previous Day
Next Day »
Daily Weekly Monthly Yearly Custom
  High: Low: Average:
Temperature: 22.8 °C 5.7 °C 13.3 °C
Dew Point: 11.1 °C 3.2 °C 7 °C
Humidity: 85 % 43 % 67 %
Wind Speed: 11.3 km/h 0.0 km/h 1.9 km/h
Wind Gust: 17.7 km/h - -
Wind:- - ENE
Pressure: 1023.2 hPa 1017.8 hPa -
Precipitation: 0.0 mm    
Historical Graphs
 
 
Tabular Data for April 20, 2016
Time Temperature Dew Point Pressure Wind Wind Speed Wind Gust Humidity Rainfall Rate (Hourly)
00:02 8.9 °C 5.3 °C 1023.2 hPa NNE 6.4 km/h 9.7 km/h 78 % 0.0 mm
00:07 8.9 °C 5.3 °C 1023.2 hPa NNE 4.8 km/h 9.7 km/h 78 % 0.0 mm
00:12 8.9 °C 5.3 °C 1023.2 hPa Calm   9.7 km/h 78 % 0.0 mm
00:22 8.7 °C 5.1 °C 1023.2 hPa Calm   9.7 km/h 78 % 0.0 mm
00:27 8.6 °C 5.0 °C 1023.2 hPa NE 3.2 km/h 9.7 km/h 78 % 0.0 mm
00:32 8.6 °C 5.2 °C 1023.2 hPa NNE 1.6 km/h 9.7 km/h 79 % 0.0 mm
00:37 8.5 °C 5.1 °C 1022.9 hPa Calm   9.7 km/h 79 % 0.0 mm
00:42 8.4 °C 5.0 °C 1022.9 hPa Calm   9.7 km/h 79 % 0.0 mm
00:47 8.4 °C 5.0 °C 1022.9 hPa NNE 1.6 km/h 8.0 km/h 79 % 0.0 mm
00:52 8.4 °C 5.0 °C 1022.9 hPa NE 1.6 km/h 8.0 km/h 79 % 0.0 mm
00:57 8.4 °C 5.0 °C 1022.9 hPa NE 3.2 km/h 8.0 km/h 79 % 0.0 mm
01:02 8.4 °C 5.0 °C 1022.9 hPa NNE 1.6 km/h 11.3 km/h 79 % 0.0 mm
01:07 8.4 °C 5.0 °C 1023.2 hPa NNE 1.6 km/h 11.3 km/h 79 % 0.0 mm
01:12 8.4 °C 5.0 °C 1022.9 hPa NNE 6.4 km/h 9.7 km/h 79 % 0.0 mm
01:17 8.5 °C 4.9 °C 1022.9 hPa Calm   9.7 km/h 78 % 0.0 mm
01:22 8.4 °C 5.0 °C 1022.9 hPa Calm   9.7 km/h 79 % 0.0 mm
01:27 8.3 °C 4.9 °C 1023.2 hPa Calm   9.7 km/h 79 % 0.0 mm
01:32 8.3 °C 4.9 °C 1023.2 hPa Calm   6.4 km/h 79 % 0.0 mm
01:37 8.3 °C 4.9 °C 1023.2 hPa NE 1.6 km/h 4.8 km/h 79 % 0.0 mm
01:42 8.2 °C 5.0 °C 1023.2 hPa Calm   11.3 km/h 80 % 0.0 mm
01:47 8.2 °C 5.0 °C 1023.2 hPa Calm   11.3 km/h 80 % 0.0 mm
01:52 8.2 °C 5.0 °C 1023.2 hPa NE 1.6 km/h 11.3 km/h 80 % 0.0 mm
01:57 8.1 °C 4.9 °C 1023.2 hPa NNE 1.6 km/h 6.4 km/h 80 % 0.0 mm
02:02 8.1 °C 4.9 °C 1023.2 hPa NNE 4.8 km/h 8.0 km/h 80 % 0.0 mm
02:07 8.2 °C 5.0 °C 1023.2 hPa NNE 1.6 km/h 8.0 km/h 80 % 0.0 mm
02:12 8.1 °C 4.9 °C 1023.2 hPa NE 4.8 km/h 8.0 km/h 80 % 0.0 mm
02:17 8.1 °C 4.9 °C 1023.2 hPa NNE 1.6 km/h 8.0 km/h 80 % 0.0 mm
02:22 8.0 °C 4.9 °C 1022.9 hPa NE 3.2 km/h 8.0 km/h 81 % 0.0 mm
02:27 8.0 °C 4.8 °C 1022.9 hPa NNE 1.6 km/h 6.4 km/h 80 % 0.0 mm
02:32 8.1 °C 4.9 °C 1022.9 hPa NE 3.2 km/h 11.3 km/h 80 % 0.0 mm
02:37 8.1 °C 4.9 °C 1022.9 hPa North 3.2 km/h 11.3 km/h 80 % 0.0 mm
02:42 8.1 °C 4.9 °C 1023.2 hPa Calm   11.3 km/h 80 % 0.0 mm
02:47 8.1 °C 4.9 °C 1022.9 hPa Calm   9.7 km/h 80 % 0.0 mm
02:52 8.1 °C 4.9 °C 1022.9 hPa NE 3.2 km/h 9.7 km/h 80 % 0.0 mm
02:57 8.2 °C 4.8 °C 1022.9 hPa Calm   11.3 km/h 79 % 0.0 mm
03:02 8.1 °C 4.9 °C 1022.9 hPa NNE 3.2 km/h 11.3 km/h 80 % 0.0 mm
03:07 8.1 °C 4.9 °C 1023.2 hPa NNE 4.8 km/h 11.3 km/h 80 % 0.0 mm
03:12 8.1 °C 4.7 °C 1023.2 hPa NNE 3.2 km/h 8.0 km/h 79 % 0.0 mm
03:17 8.0 °C 4.8 °C 1023.2 hPa NE 1.6 km/h 8.0 km/h 80 % 0.0 mm
03:27 7.8 °C 4.6 °C 1022.9 hPa NE 3.2 km/h 8.0 km/h 80 % 0.0 mm
03:37 7.9 °C 4.5 °C 1023.2 hPa East 1.6 km/h 11.3 km/h 79 % 0.0 mm
03:42 7.8 °C 4.6 °C 1023.2 hPa Calm   11.3 km/h 80 % 0.0 mm
03:47 7.7 °C 4.5 °C 1023.2 hPa Calm   11.3 km/h 80 % 0.0 mm
03:52 7.6 °C 4.4 °C 1023.2 hPa Calm   9.7 km/h 80 % 0.0 mm
03:57 7.6 °C 4.4 °C 1023.2 hPa NNE 3.2 km/h 9.7 km/h 80 % 0.0 mm
04:02 7.5 °C 4.5 °C 1023.2 hPa Calm   9.7 km/h 81 % 0.0 mm
04:07 7.3 °C 4.3 °C 1023.2 hPa NE 1.6 km/h 8.0 km/h 81 % 0.0 mm
04:12 7.3 °C 4.4 °C 1023.2 hPa NNE 3.2 km/h 11.3 km/h 82 % 0.0 mm
04:17 7.2 °C 4.3 °C 1023.2 hPa North 4.8 km/h 11.3 km/h 82 % 0.0 mm
04:22 7.1 °C 4.2 °C 1023.2 hPa NNE 1.6 km/h 8.0 km/h 82 % 0.0 mm
04:27 7.1 °C 4.2 °C 1023.2 hPa ESE 3.2 km/h 11.3 km/h 82 % 0.0 mm
04:32 7.1 °C 4.2 °C 1022.9 hPa NNE 6.4 km/h 11.3 km/h 82 % 0.0 mm
04:37 7.1 °C 4.2 °C 1022.9 hPa NNE 8.0 km/h 11.3 km/h 82 % 0.0 mm
04:42 7.2 °C 4.2 °C 1022.9 hPa Calm   11.3 km/h 81 % 0.0 mm
04:52 7.2 °C 4.0 °C 1022.6 hPa Calm   11.3 km/h 80 % 0.0 mm
04:57 7.2 °C 4.0 °C 1022.6 hPa ENE 1.6 km/h 11.3 km/h 80 % 0.0 mm
05:02 7.0 °C 4.0 °C 1022.6 hPa Calm   12.9 km/h 81 % 0.0 mm
05:07 6.8 °C 3.9 °C 1022.6 hPa NE 4.8 km/h 12.9 km/h 82 % 0.0 mm
05:17 6.4 °C 3.9 °C 1022.2 hPa ENE 1.6 km/h 9.7 km/h 84 % 0.0 mm
05:22 6.4 °C 3.9 °C 1022.2 hPa South 1.6 km/h 11.3 km/h 84 % 0.0 mm
05:27 6.4 °C 3.9 °C 1021.9 hPa Calm   11.3 km/h 84 % 0.0 mm
05:32 6.5 °C 3.8 °C 1021.9 hPa NE 3.2 km/h 11.3 km/h 83 % 0.0 mm
05:37 6.6 °C 3.9 °C 1021.9 hPa ESE 1.6 km/h 11.3 km/h 83 % 0.0 mm
05:42 6.5 °C 3.8 °C 1021.9 hPa NE 1.6 km/h 11.3 km/h 83 % 0.0 mm
05:47 6.4 °C 3.7 °C 1021.9 hPa Calm   8.0 km/h 83 % 0.0 mm
05:52 6.3 °C 3.6 °C 1022.2 hPa Calm   8.0 km/h 83 % 0.0 mm
05:57 6.2 °C 3.7 °C 1022.2 hPa NNE 3.2 km/h 8.0 km/h 84 % 0.0 mm
06:02 6.0 °C 3.5 °C 1022.2 hPa ENE 3.2 km/h 9.7 km/h 84 % 0.0 mm
06:07 5.9 °C 3.6 °C 1022.2 hPa ENE 6.4 km/h 9.7 km/h 85 % 0.0 mm
06:12 5.9 °C 3.6 °C 1022.2 hPa Calm   9.7 km/h 85 % 0.0 mm
06:17 5.8 °C 3.5 °C 1022.2 hPa Calm   9.7 km/h 85 % 0.0 mm
06:22 5.7 °C 3.4 °C 1022.2 hPa ESE 1.6 km/h 9.7 km/h 85 % 0.0 mm
06:27 5.9 °C 3.4 °C 1022.2 hPa NE 6.4 km/h 6.4 km/h 84 % 0.0 mm
06:32 5.9 °C 3.4 °C 1022.2 hPa ENE 1.6 km/h 6.4 km/h 84 % 0.0 mm
06:37 5.8 °C 3.3 °C 1022.2 hPa NE 4.8 km/h 14.5 km/h 84 % 0.0 mm
06:42 5.9 °C 3.4 °C 1022.2 hPa Calm   14.5 km/h 84 % 0.0 mm
06:47 5.9 °C 3.2 °C 1022.2 hPa NE 1.6 km/h 8.0 km/h 83 % 0.0 mm
06:52 6.0 °C 3.3 °C 1022.2 hPa Calm   8.0 km/h 83 % 0.0 mm
07:02 6.1 °C 3.3 °C 1022.2 hPa Calm   9.7 km/h 82 % 0.0 mm
07:07 6.1 °C 3.3 °C 1022.2 hPa NNE 3.2 km/h 11.3 km/h 82 % 0.0 mm
07:17 6.0 °C 3.2 °C 1022.2 hPa Calm   11.3 km/h 82 % 0.0 mm
07:22 6.1 °C 3.3 °C 1022.6 hPa Calm   8.0 km/h 82 % 0.0 mm
07:27 6.0 °C 3.2 °C 1022.6 hPa Calm   8.0 km/h 82 % 0.0 mm
07:32 6.0 °C 3.2 °C 1022.6 hPa Calm   6.4 km/h 82 % 0.0 mm
07:37 6.0 °C 3.2 °C 1022.6 hPa NE 3.2 km/h 6.4 km/h 82 % 0.0 mm
07:42 6.1 °C 3.3 °C 1022.6 hPa Calm   6.4 km/h 82 % 0.0 mm
07:47 6.2 °C 3.4 °C 1022.6 hPa NE 3.2 km/h 8.0 km/h 82 % 0.0 mm
07:52 6.2 °C 3.4 °C 1022.6 hPa NE 3.2 km/h 8.0 km/h 82 % 0.0 mm
07:57 6.3 °C 3.3 °C 1022.2 hPa NE 3.2 km/h 8.0 km/h 81 % 0.0 mm
08:02 6.4 °C 3.4 °C 1022.2 hPa East 4.8 km/h 8.0 km/h 81 % 0.0 mm
08:07 6.4 °C 3.4 °C 1022.6 hPa Calm   12.9 km/h 81 % 0.0 mm
08:12 6.5 °C 3.5 °C 1022.6 hPa Calm   12.9 km/h 81 % 0.0 mm
08:17 6.7 °C 3.5 °C 1022.6 hPa SE 1.6 km/h 12.9 km/h 80 % 0.0 mm
08:22 6.8 °C 3.6 °C 1022.6 hPa NE 3.2 km/h 11.3 km/h 80 % 0.0 mm
08:27 6.8 °C 3.6 °C 1022.6 hPa NE 6.4 km/h 11.3 km/h 80 % 0.0 mm
08:32 7.0 °C 3.8 °C 1022.2 hPa NNE 6.4 km/h 11.3 km/h 80 % 0.0 mm
08:42 7.3 °C 4.1 °C 1022.2 hPa ENE 3.2 km/h 11.3 km/h 80 % 0.0 mm
08:47 7.5 °C 4.1 °C 1022.2 hPa NNE 11.3 km/h 16.1 km/h 79 % 0.0 mm
08:52 7.7 °C 4.1 °C 1022.2 hPa NNE 8.0 km/h 17.7 km/h 78 % 0.0 mm
08:57 7.8 °C 4.2 °C 1022.2 hPa NW 3.2 km/h 17.7 km/h 78 % 0.0 mm
09:02 8.1 °C 4.5 °C 1022.2 hPa NE 8.0 km/h 17.7 km/h 78 % 0.0 mm
09:07 8.3 °C 4.7 °C 1022.2 hPa NE 6.4 km/h 14.5 km/h 78 % 0.0 mm
09:12 8.5 °C 4.9 °C 1022.2 hPa NE 3.2 km/h 14.5 km/h 78 % 0.0 mm
09:17 8.7 °C 4.9 °C 1022.2 hPa NE 4.8 km/h 16.1 km/h 77 % 0.0 mm
09:22 8.9 °C 4.9 °C 1022.2 hPa NNE 4.8 km/h 16.1 km/h 76 % 0.0 mm
09:27 9.2 °C 5.2 °C 1022.2 hPa NE 3.2 km/h 16.1 km/h 76 % 0.0 mm
09:32 9.5 °C 5.3 °C 1022.2 hPa NE 3.2 km/h 14.5 km/h 75 % 0.0 mm
09:37 9.8 °C 5.4 °C 1022.2 hPa North 11.3 km/h 14.5 km/h 74 % 0.0 mm
09:42 10.2 °C 5.8 °C 1022.2 hPa NE 6.4 km/h 16.1 km/h 74 % 0.0 mm
09:52 10.7 °C 6.1 °C 1021.9 hPa Calm   14.5 km/h 73 % 0.0 mm
09:57 11.1 °C 6.2 °C 1022.2 hPa NE 4.8 km/h 14.5 km/h 72 % 0.0 mm
10:02 11.3 °C 6.2 °C 1021.9 hPa NNE 8.0 km/h 14.5 km/h 71 % 0.0 mm
10:07 11.5 °C 6.2 °C 1021.9 hPa NE 4.8 km/h 14.5 km/h 70 % 0.0 mm
10:12 11.9 °C 6.8 °C 1021.9 hPa NNE 6.4 km/h 14.5 km/h 71 % 0.0 mm
10:17 12.3 °C 6.6 °C 1022.2 hPa NE 6.4 km/h 14.5 km/h 68 % 0.0 mm
10:22 12.7 °C 7.2 °C 1021.9 hPa Calm   12.9 km/h 69 % 0.0 mm
10:27 13.2 °C 7.4 °C 1022.2 hPa Calm   11.3 km/h 68 % 0.0 mm
10:32 13.7 °C 7.5 °C 1022.2 hPa ENE 8.0 km/h 11.3 km/h 66 % 0.0 mm
10:37 13.6 °C 7.1 °C 1022.2 hPa WNW 4.8 km/h 11.3 km/h 65 % 0.0 mm
10:47 14.0 °C 6.8 °C 1021.9 hPa SSE 6.4 km/h 11.3 km/h 62 % 0.0 mm
10:57 14.7 °C 7.7 °C 1021.9 hPa West 4.8 km/h 8.0 km/h 63 % 0.0 mm
11:02 14.4 °C 7.9 °C 1021.9 hPa NNE 4.8 km/h 8.0 km/h 65 % 0.0 mm
11:07 14.8 °C 8.3 °C 1021.9 hPa NNE 3.2 km/h 8.0 km/h 65 % 0.0 mm
11:12 14.9 °C 7.9 °C 1021.9 hPa NE 4.8 km/h 14.5 km/h 63 % 0.0 mm
11:17 14.9 °C 8.1 °C 1021.9 hPa NE 3.2 km/h 14.5 km/h 64 % 0.0 mm
11:22 14.8 °C 7.8 °C 1021.9 hPa ENE 11.3 km/h 14.5 km/h 63 % 0.0 mm
11:32 15.2 °C 8.0 °C 1021.9 hPa NE 3.2 km/h 14.5 km/h 62 % 0.0 mm
11:37 15.8 °C 9.0 °C 1021.9 hPa Calm   14.5 km/h 64 % 0.0 mm
11:42 16.4 °C 9.1 °C 1021.9 hPa Calm   11.3 km/h 62 % 0.0 mm
11:57 17.5 °C 8.4 °C 1022.2 hPa Calm   6.4 km/h 55 % 0.0 mm
12:02 17.6 °C 9.0 °C 1022.2 hPa NNE 1.6 km/h 6.4 km/h 57 % 0.0 mm
12:12 18.2 °C 9.5 °C 1022.2 hPa Calm   8.0 km/h 57 % 0.0 mm
12:17 18.3 °C 8.8 °C 1021.9 hPa NE 3.2 km/h 8.0 km/h 54 % 0.0 mm
12:22 18.2 °C 9.3 °C 1021.9 hPa NNE 1.6 km/h 8.0 km/h 56 % 0.0 mm
12:32 18.7 °C 9.7 °C 1021.6 hPa SW 1.6 km/h 6.4 km/h 56 % 0.0 mm
12:37 18.9 °C 9.4 °C 1021.6 hPa NE 3.2 km/h 8.0 km/h 54 % 0.0 mm
12:42 19.2 °C 9.7 °C 1021.6 hPa Calm   8.0 km/h 54 % 0.0 mm
12:47 19.5 °C 9.7 °C 1021.6 hPa Calm   8.0 km/h 53 % 0.0 mm
12:52 19.9 °C 10.3 °C 1021.6 hPa Calm   8.0 km/h 54 % 0.0 mm
12:57 19.7 °C 8.7 °C 1021.6 hPa NNW 3.2 km/h 8.0 km/h 49 % 0.0 mm
13:02 19.6 °C 9.2 °C 1021.6 hPa NNE 1.6 km/h 8.0 km/h 51 % 0.0 mm
13:12 19.6 °C 9.8 °C 1021.6 hPa Calm   9.7 km/h 53 % 0.0 mm
13:17 19.3 °C 9.5 °C 1021.6 hPa NNE 1.6 km/h 9.7 km/h 53 % 0.0 mm
13:22 19.6 °C 9.8 °C 1021.6 hPa NNE 1.6 km/h 9.7 km/h 53 % 0.0 mm
13:27 19.8 °C 9.4 °C 1021.6 hPa ENE 3.2 km/h 11.3 km/h 51 % 0.0 mm
13:37 19.2 °C 9.1 °C 1021.2 hPa Calm   8.0 km/h 52 % 0.0 mm
13:47 20.1 °C 10.2 °C 1021.2 hPa Calm   6.4 km/h 53 % 0.0 mm
13:52 20.5 °C 10.3 °C 1021.2 hPa NNE 9.7 km/h 9.7 km/h 52 % 0.0 mm
14:02 21.1 °C 9.7 °C 1020.9 hPa Calm   9.7 km/h 48 % 0.0 mm
14:07 21.5 °C 10.3 °C 1020.9 hPa NE 4.8 km/h 9.7 km/h 49 % 0.0 mm
14:12 21.9 °C 10.7 °C 1020.9 hPa Calm   9.7 km/h 49 % 0.0 mm
14:17 22.0 °C 10.2 °C 1020.5 hPa NE 3.2 km/h 6.4 km/h 47 % 0.0 mm
14:22 22.0 °C 10.2 °C 1020.5 hPa WSW 1.6 km/h 6.4 km/h 47 % 0.0 mm
14:27 22.0 °C 10.8 °C 1020.5 hPa NE 3.2 km/h 6.4 km/h 49 % 0.0 mm
14:32 22.0 °C 10.5 °C 1020.5 hPa Calm   6.4 km/h 48 % 0.0 mm
14:37 22.2 °C 11.0 °C 1020.5 hPa Calm   9.7 km/h 49 % 0.0 mm
14:42 22.1 °C 10.9 °C 1020.5 hPa SSE 1.6 km/h 9.7 km/h 49 % 0.0 mm
14:47 22.1 °C 9.9 °C 1020.2 hPa Calm   8.0 km/h 46 % 0.0 mm
14:52 21.7 °C 8.9 °C 1020.2 hPa Calm   8.0 km/h 44 % 0.0 mm
14:57 21.4 °C 10.2 °C 1020.2 hPa Calm   9.7 km/h 49 % 0.0 mm
15:02 21.3 °C 9.8 °C 1020.2 hPa Calm   9.7 km/h 48 % 0.0 mm
15:07 21.3 °C 9.8 °C 1020.2 hPa North 1.6 km/h 9.7 km/h 48 % 0.0 mm
15:12 21.3 °C 9.8 °C 1020.2 hPa NNE 6.4 km/h 9.7 km/h 48 % 0.0 mm
15:17 20.7 °C 9.6 °C 1020.2 hPa NE 6.4 km/h 8.0 km/h 49 % 0.0 mm
15:22 20.5 °C 9.7 °C 1020.2 hPa NNE 1.6 km/h 12.9 km/h 50 % 0.0 mm
15:27 20.9 °C 9.5 °C 1020.2 hPa NNE 1.6 km/h 14.5 km/h 48 % 0.0 mm
15:32 20.9 °C 10.4 °C 1019.9 hPa Calm   14.5 km/h 51 % 0.0 mm
15:42 20.7 °C 9.6 °C 1019.9 hPa NE 4.8 km/h 9.7 km/h 49 % 0.0 mm
15:47 20.2 °C 8.5 °C 1019.9 hPa NE 6.4 km/h 9.7 km/h 47 % 0.0 mm
15:52 20.1 °C 9.1 °C 1019.9 hPa North 1.6 km/h 12.9 km/h 49 % 0.0 mm
16:02 20.4 °C 9.6 °C 1019.5 hPa NNW 1.6 km/h 12.9 km/h 50 % 0.0 mm
16:07 20.6 °C 9.5 °C 1019.5 hPa NE 3.2 km/h 12.9 km/h 49 % 0.0 mm
16:12 20.9 °C 10.4 °C 1019.5 hPa NE 1.6 km/h 12.9 km/h 51 % 0.0 mm
16:17 21.4 °C 9.9 °C 1019.2 hPa NW 1.6 km/h 14.5 km/h 48 % 0.0 mm
16:22 21.8 °C 10.9 °C 1019.2 hPa Calm   14.5 km/h 50 % 0.0 mm
16:32 22.4 °C 9.5 °C 1019.2 hPa Calm   11.3 km/h 44 % 0.0 mm
16:37 22.3 °C 11.1 °C 1018.8 hPa ENE 3.2 km/h 6.4 km/h 49 % 0.0 mm
16:42 21.8 °C 10.0 °C 1018.8 hPa Calm   6.4 km/h 47 % 0.0 mm
16:52 21.9 °C 9.4 °C 1018.8 hPa Calm   12.9 km/h 45 % 0.0 mm
17:02 21.4 °C 9.0 °C 1018.8 hPa WSW 3.2 km/h 8.0 km/h 45 % 0.0 mm
17:07 21.2 °C 9.8 °C 1018.8 hPa West 1.6 km/h 4.8 km/h 48 % 0.0 mm
17:12 21.3 °C 9.5 °C 1018.8 hPa Calm   4.8 km/h 47 % 0.0 mm
17:22 21.8 °C 10.3 °C 1018.5 hPa Calm   4.8 km/h 48 % 0.0 mm
17:32 22.2 °C 9.4 °C 1018.5 hPa Calm   4.8 km/h 44 % 0.0 mm
17:37 22.3 °C 10.1 °C 1018.5 hPa Calm   6.4 km/h 46 % 0.0 mm
17:42 22.5 °C 10.0 °C 1018.5 hPa Calm   6.4 km/h 45 % 0.0 mm
17:47 22.7 °C 9.8 °C 1018.5 hPa Calm   8.0 km/h 44 % 0.0 mm
17:52 22.8 °C 9.9 °C 1018.5 hPa Calm   8.0 km/h 44 % 0.0 mm
17:57 22.7 °C 10.2 °C 1018.2 hPa Calm   6.4 km/h 45 % 0.0 mm
18:02 22.8 °C 10.6 °C 1018.2 hPa Calm   6.4 km/h 46 % 0.0 mm
18:12 22.6 °C 9.4 °C 1018.2 hPa Calm   6.4 km/h 43 % 0.0 mm
18:17 22.4 °C 9.9 °C 1018.2 hPa Calm   6.4 km/h 45 % 0.0 mm
18:22 22.2 °C 9.4 °C 1018.2 hPa Calm   6.4 km/h 44 % 0.0 mm
18:27 22.1 °C 9.6 °C 1018.2 hPa Calm   4.8 km/h 45 % 0.0 mm
18:32 21.8 °C 9.7 °C 1018.2 hPa Calm   4.8 km/h 46 % 0.0 mm
18:37 21.6 °C 8.8 °C 1018.2 hPa Calm   6.4 km/h 44 % 0.0 mm
18:42 21.2 °C 9.1 °C 1018.2 hPa Calm   6.4 km/h 46 % 0.0 mm
18:47 20.8 °C 9.4 °C 1017.8 hPa Calm   8.0 km/h 48 % 0.0 mm
18:52 20.5 °C 9.4 °C 1018.2 hPa Calm   8.0 km/h 49 % 0.0 mm
18:57 20.3 °C 9.2 °C 1017.8 hPa SW 1.6 km/h 4.8 km/h 49 % 0.0 mm
19:02 20.2 °C 9.4 °C 1017.8 hPa Calm   4.8 km/h 50 % 0.0 mm
19:12 19.7 °C 9.0 °C 1017.8 hPa NNE 3.2 km/h 3.2 km/h 50 % 0.0 mm
19:22 19.4 °C 9.0 °C 1017.8 hPa Calm   4.8 km/h 51 % 0.0 mm
19:32 19.2 °C 9.4 °C 1017.8 hPa Calm   4.8 km/h 53 % 0.0 mm
19:37 19.1 °C 9.0 °C 1017.8 hPa Calm   3.2 km/h 52 % 0.0 mm
19:42 19.1 °C 9.3 °C 1017.8 hPa Calm   3.2 km/h 53 % 0.0 mm
19:52 18.7 °C 9.5 °C 1017.8 hPa Calm   3.2 km/h 55 % 0.0 mm
19:57 18.5 °C 9.0 °C 1017.8 hPa Calm   3.2 km/h 54 % 0.0 mm
20:02 18.3 °C 9.1 °C 1018.2 hPa Calm   3.2 km/h 55 % 0.0 mm
20:12 17.9 °C 9.5 °C 1018.2 hPa Calm   3.2 km/h 58 % 0.0 mm
20:17 17.6 °C 9.2 °C 1018.2 hPa Calm   4.8 km/h 58 % 0.0 mm
20:22 17.3 °C 9.7 °C 1018.2 hPa Calm   4.8 km/h 61 % 0.0 mm
20:27 16.7 °C 9.6 °C 1018.2 hPa Calm   4.8 km/h 63 % 0.0 mm
20:32 16.3 °C 9.5 °C 1018.2 hPa Calm   4.8 km/h 64 % 0.0 mm
20:42 15.5 °C 9.4 °C 1018.2 hPa Calm     67 % 0.0 mm
20:47 15.2 °C 9.1 °C 1018.5 hPa Calm   1.6 km/h 67 % 0.0 mm
20:52 15.1 °C 9.2 °C 1018.5 hPa Calm   1.6 km/h 68 % 0.0 mm
20:57 14.9 °C 9.0 °C 1018.5 hPa Calm   1.6 km/h 68 % 0.0 mm
21:07 14.8 °C 9.4 °C 1018.5 hPa NE 1.6 km/h 1.6 km/h 70 % 0.0 mm
21:12 14.8 °C 9.0 °C 1018.5 hPa Calm   1.6 km/h 68 % 0.0 mm
21:17 15.1 °C 9.2 °C 1018.5 hPa Calm   3.2 km/h 68 % 0.0 mm
21:22 15.3 °C 8.8 °C 1018.2 hPa NE 1.6 km/h 3.2 km/h 65 % 0.0 mm
21:32 15.3 °C 8.8 °C 1018.5 hPa NE 1.6 km/h 6.4 km/h 65 % 0.0 mm
21:42 15.1 °C 8.8 °C 1018.5 hPa NNE 1.6 km/h 6.4 km/h 66 % 0.0 mm
21:47 15.1 °C 8.8 °C 1018.5 hPa Calm   3.2 km/h 66 % 0.0 mm
21:52 15.1 °C 9.0 °C 1018.5 hPa Calm   3.2 km/h 67 % 0.0 mm
21:57 15.0 °C 8.9 °C 1018.8 hPa Calm   3.2 km/h 67 % 0.0 mm
22:02 14.8 °C 9.4 °C 1018.8 hPa Calm   1.6 km/h 70 % 0.0 mm
22:12 14.3 °C 8.9 °C 1018.5 hPa Calm   1.6 km/h 70 % 0.0 mm
22:17 14.2 °C 9.0 °C 1018.5 hPa Calm     71 % 0.0 mm
22:22 14.0 °C 8.6 °C 1018.5 hPa Calm     70 % 0.0 mm
22:32 13.9 °C 8.5 °C 1018.5 hPa Calm     70 % 0.0 mm
22:42 13.7 °C 8.7 °C 1018.5 hPa Calm     72 % 0.0 mm
22:47 13.6 °C 8.6 °C 1018.5 hPa Calm     72 % 0.0 mm
22:57 13.6 °C 8.4 °C 1018.5 hPa Calm     71 % 0.0 mm
23:02 13.6 °C 8.4 °C 1018.5 hPa Calm     71 % 0.0 mm
23:07 13.5 °C 8.1 °C 1018.5 hPa Calm     70 % 0.0 mm
23:12 13.6 °C 7.8 °C 1018.2 hPa NNE 3.2 km/h   68 % 0.0 mm
23:17 13.7 °C 7.7 °C 1018.5 hPa Calm   3.2 km/h 67 % 0.0 mm
23:22 13.6 °C 7.8 °C 1018.5 hPa Calm   3.2 km/h 68 % 0.0 mm
23:32 12.9 °C 7.8 °C 1018.5 hPa Calm   3.2 km/h 71 % 0.0 mm
23:37 12.6 °C 7.9 °C 1018.5 hPa Calm   3.2 km/h 73 % 0.0 mm
23:42 12.4 °C 7.9 °C 1018.5 hPa Calm   3.2 km/h 74 % 0.0 mm
23:52 12.0 °C 7.7 °C 1018.8 hPa Calm   1.6 km/h 75 % 0.0 mm
Meteo18
Compliments of Weather Underground - 4 mb

Script developed by  Jim McMurry - jmcmurry@mwt.net Adapted for the template by  Wim van der Kuil - Leuven-Template.eu

You find our weather info also at:

European Weather Network

Weather Underground

Equipment we use:

Weather-station
Davis Vue

Weather-program
Meteohub

Weather-server
Raspberry PI 2 B+

Provider
1 and 1

Davis Vue

Meteohub

Raspberry PI 2 B+

1 and 1